This is the latest recevied weather packets stored in our database for station/object AD4CG. If no packets are shown the sender has not sent any weather packets the latest 10 day(s).
| Time | Temp. | Humidity | Pressure | Rain* | Wind** | Luminosity | Snow |
|---|---|---|---|---|---|---|---|
| 1777797812 | 6.11° C | 100% | 1016.9 hPa | 0 mm | - | - | - |
| 1777793440 | 7.78° C | 100% | 1016.3 hPa | 0 mm | - | - | - |
| 1777790304 | 8.33° C | 100% | 1015.6 hPa | 0 mm | - | - | - |
| 1777789061 | 8.89° C | 100% | 1015.6 hPa | 0 mm | - | - | - |
| 1777786895 | 8.89° C | 100% | 1015.6 hPa | 0 mm | - | - | - |
| 1777785343 | 9.44° C | 100% | 1015.2 hPa | 0 mm | - | - | - |
| 1777785032 | 9.44° C | 100% | 1015.2 hPa | 0 mm | - | - | - |
| 1777782234 | 9.44° C | 100% | 1015.2 hPa | 0 mm | - | - | - |
| 1777778774 | 9.44° C | 100% | 1014.6 hPa | 0 mm | - | - | - |
| 1777776215 | 9.44° C | 100% | 1014.6 hPa | 0 mm | - | - | - |
| 1777772749 | 10° C | 100% | 1014.2 hPa | 0 mm | - | - | - |
| 1777771155 | 10° C | 100% | 1013.9 hPa | 0 mm | - | - | - |
| 1777770498 | 10.56° C | 100% | 1013.9 hPa | 0 mm | - | - | - |
| 1777768597 | 11.11° C | 100% | 1013.2 hPa | 0 mm | - | - | - |
| 1777767335 | 11.11° C | 100% | 1012.9 hPa | 0 mm | - | - | - |
| 1777763856 | 11.67° C | 100% | 1012.2 hPa | 0 mm | - | - | - |
| 1777761949 | 11.67° C | 100% | 1012.5 hPa | 0 mm | - | - | - |
| 1777760351 | 11.67° C | 100% | 1012.5 hPa | 0 mm | - | - | - |
| 1777759692 | 11.67° C | 100% | 1012.5 hPa | 0 mm | - | - | - |
| 1777758728 | 11.67° C | 100% | 1012.2 hPa | 0 mm | - | - | - |
| 1777758396 | 11.67° C | 100% | 1011.9 hPa | 0 mm | - | - | - |
| 1777756791 | 11.67° C | 100% | 1012.2 hPa | 0 mm | - | - | - |
| 1777756480 | 11.67° C | 100% | 1012.9 hPa | 0 mm | - | - | - |
| 1777749205 | 11.11° C | 100% | 1012.9 hPa | 0 mm | - | - | - |
| 1777748872 | 11.11° C | 100% | 1012.5 hPa | 0 mm | - | - | - |
* Rain latest hour (hover to see other rain measurements)
** Current wind speed in m/s (hover to see current wind gust speed)